Location: Bismarck
(46.7731°N, 100.8200°W)
Time: 20:43:30
(UTC-05:00)

Landsat 7 - Visible Passes

Search period start: 26 June 2017 00:00
Search period end: 06 July 2017 00:00
Orbit: 702 x 703 km, 98.2° (Epoch: 26 June)

Date Brightness Start Highest point End Pass type
(mag) Time Alt. Az. Time Alt. Az. Time Alt. Az.
26 Jun 4.3 22:47:28 12° SE 22:51:41 47° ENE 22:56:15 10° N visible
27 Jun 5.7 00:26:21 12° SW 00:29:40 22° W 00:33:23 10° NW visible
27 Jun 4.0 23:30:44 17° S 23:34:23 71° WSW 23:39:10 10° NNW visible
28 Jun 4.7 22:35:12 10° SE 22:39:32 36° ENE 22:43:55 10° N visible
29 Jun 5.3 00:14:00 14° SSW 00:17:20 28° W 00:21:28 10° NW visible
29 Jun 3.8 23:18:23 16° SSE 23:22:09 89° ENE 23:26:57 10° NNW visible
30 Jun 6.3 00:58:59 10° WSW 01:00:35 11° W 01:02:10 10° WNW visible
30 Jun 5.0 22:23:21 10° SE 22:27:24 29° ENE 22:31:30 10° N visible
01 Jul 4.9 00:01:39 16° SSW 00:05:02 37° W 00:09:28 10° NNW visible
01 Jul 3.9 23:06:03 15° SSE 23:09:57 69° ENE 23:14:42 10° N visible
02 Jul 6.1 00:45:27 10° SW 00:48:11 15° W 00:50:57 10° NW visible
02 Jul 5.3 22:11:35 10° ESE 22:15:18 23° ENE 22:19:02 10° NNE visible
02 Jul 4.5 23:49:19 17° SSW 23:52:45 48° W 23:57:22 10° NNW visible
03 Jul 4.2 22:53:43 13° SE 22:57:46 53° ENE 23:02:24 10° N visible
04 Jul 5.8 00:32:36 11° SW 00:35:50 20° W 00:39:17 10° NW visible
04 Jul 4.1 23:36:59 18° S 23:40:30 63° WSW 23:45:15 10° NNW visible
05 Jul 4.5 22:41:23 11° SE 22:45:36 41° ENE 22:50:05 10° N visible
